User: anonymous   Login
Location: Bismarck
(46.7731°N, 100.8200°W)
Time: 10:25:57
(UTC-05:00)
Language:

Cosmos 1125 Rocket - Orbit

View from above orbital plane
View from above orbital plane
View from above satellite
View from above satellite

Ground track
Ground track

The orbit data is extracted from the following two-line orbital elements,

1 11511U 79078B   14294.47203911  .00000426  00000-0  15387-3 0  9255
2 11511 074.0361 297.3493 0014778 054.2890 054.8226 14.36469631839374
Epoch (UTC): 21 October 2014 11:19:44
Eccentricity: 0.0014778
inclination: 74.0361°
perigee height: 759 km
apogee height: 781 km
right ascension of ascending node: 297.3493°
argument of perigee: 54.2890°
revolutions per day: 14.36469631
mean anomaly at epoch: 54.8226°
orbit number at epoch: 83937

The dashed part of the orbit path shows where the satellite is in the earth's shadow,  

DLR